Regional Weather Roundup
Issued by NWS

Home | Current Version | Previous Version | Text Only | Print | Product List | Glossary Off
Versions: 1 2 3 4 5 6 7 8 9 10 11 12 13 14 15 16 17 18 19 20 21 22 23 24 25 26 27 28 29 30 31 32 33 34 35 36 37 38 39 40 41 42 43 44 45 46 47 48 49 50

000
ASUS43 KMPX 202301
RWRMN
WEATHER ROUNDUP FOR MINNESOTA
NATIONAL WEATHER SERVICE TWIN CITIES/CHANHASSEN MN
600 PM CDT MON OCT 20 2014


NOTE: "FAIR" INDICATES FEW OR NO CLOUDS BELOW 12,000 FEET WITH NO
SIGNIFICANT WEATHER AND/OR OBSTRUCTIONS TO VISIBILITY. N/A MEANS
CURRENT SKY AND/OR WEATHER CONDITIONS ARE NOT AVAILABLE.

MNZ060>063-068>070-210000-
   Twin Cities Metro

CITY           SKY/WX    TMP DP  RH WIND       PRES   REMARKS
TWIN CITIES    CLEAR     60  40  47 NW10      30.00R
ST PAUL        CLEAR     58  39  49 N9        30.01R
CRYSTAL        CLEAR     60  40  47 NE8       30.00R
BLAINE         CLEAR     57  41  54 N12       30.01R
LAKEVILLE      CLEAR     57  41  54 NW7       30.00R
EDEN PRAIRIE   CLEAR     60  40  47 NW9       30.00R
SOUTH ST PAUL  CLEAR     60  39  46 N7        30.00R
LAKE ELMO      FAIR      55  41  58 N7        30.02R
$$
MNZ001>005-007-008-013>017-022>024-027-028-210000-
   Northwest Minnesota

CITY           SKY/WX    TMP DP  RH WIND       PRES   REMARKS
BEMIDJI        CLEAR     48  38  67 N5        30.05R
HALLOCK        CLEAR     55  39  54 E3        30.04S
ROSEAU         CLEAR     52  39  62 CALM      30.06S
WARROAD        CLEAR     46  41  81 E6        30.08R
THIEF RVR FALL CLEAR     54  39  58 CALM      30.05S
CROOKSTON      CLEAR     55  41  58 E3        30.05R
FOSSTON        CLEAR     55  37  50 CALM      30.05S
DETROIT LAKES  CLEAR     55  39  54 N5        30.05R
MOORHEAD       CLEAR     61  43  51 NE3       30.03F
PARK RAPIDS    CLEAR     58  34  40 N6        30.02S
MAHNOMEN       FAIR      55  37  49 N6        30.04R
$$
MNZ006-009>011-018-025>026-210000-
   North Central Minnesota

CITY           SKY/WX    TMP DP  RH WIND       PRES   REMARKS
BAUDETTE       CLEAR     45  36  70 NW6       30.07R
FLAG ISLAND    CLEAR     46  37  71 CALM      30.06R
INTL FALLS     CLOUDY    46  35  65 NE5       30.07R
WASKISH        CLEAR     46  39  76 CALM      30.06S
BIG FORK       CLOUDY    46  37  71 N3        30.07R
LONGVILLE      CLEAR     52  39  62 N6        30.04R
GRAND RAPIDS   CLOUDY    46  37  71 N6        30.06R
CRANE LAKE     CLOUDY    45  37  76 NW6       30.08R
ORR            CLOUDY    46  34  61 CALM      30.04R
COOK           CLOUDY    46  36  66 N5        30.06R
WALKER         FAIR      49  40  71 E5        30.04R
$$
MNZ012-019>021-037-210000-
   Northeast Minnesota

CITY           SKY/WX    TMP DP  RH WIND       PRES   REMARKS
DULUTH         CLOUDY    48  36  63 N8        30.04R
ELY            CLOUDY    45  36  70 CALM      30.05R
HIBBING        CLOUDY    48  35  60 NE3       30.05R
EVELETH        MOCLDY    45  34  65 N3        30.07R
DULUTH HARBOR  CLOUDY    52  41  66 N10       30.06R
TWO HARBORS    CLOUDY    52  28  40 CALM      30.03R
SILVER BAY     CLEAR     50  37  62 N6        30.02R
GRAND MARAIS     N/A     48  37  65 VRB3      30.04R
G MARAIS ARPRT MOCLDY    39  32  75 NW8       30.03R
$$
MNZ029>031-032-039>041-046>048-054>057-064-210000-
   West Central Minnesota

CITY           SKY/WX    TMP DP  RH WIND       PRES   REMARKS
FERGUS FALLS   CLEAR     61  36  39 N5        30.04S
WHEATON        CLEAR     61  39  44 N6        30.05R
MORRIS         CLEAR     63  41  45 N8        30.03R
ALEXANDRIA     CLEAR     59  38  45 N7        30.04R
ELBOW LAKE     FAIR      59  40  50 NW6       30.03S
WADENA         CLEAR     55  39  54 NW5       30.02S
GLENWOOD       CLEAR     61  34  36 NW7       30.03S
APPLETON       CLEAR     64  37  36 N6        30.02S
BENSON         CLEAR     61  41  48 N3        30.03S
ORTONVILLE     CLEAR     64  39  39 N6        30.03S
MADISON        CLEAR     66  41  39 N5        30.03S
WILLMAR        FAIR      63  37  39 NW8       30.04R
$$
MNZ033>034-036-042>043-049>051-058-059-210000-
   Central Minnesota

CITY           SKY/WX    TMP DP  RH WIND       PRES   REMARKS
ST CLOUD       CLEAR     62  40  44 N6        30.02R
SAUK CENTRE    FAIR      59  39  46 NW7       30.03R
PAYNESVILLE    CLEAR     58  38  46 W5        30.02S
AITKIN         CLEAR     52  39  62 NE7       30.03R
PINE RIVER     CLEAR     52  41  66 NE5       30.07R
BRAINERD       CLEAR     52  39  61 NE10      30.04R
STAPLES        CLEAR     57  34  41 N3        30.02S
LONG PRAIRIE   FAIR      57  37  47 NW6       30.03R
LITTLE FALLS   CLEAR     59  32  36 CALM      30.03R
LITCHFIELD     CLEAR     63  39  42 N6        30.02S
BUFFALO        CLEAR     59  39  46 N6        30.02S
MAPLE LAKE     CLEAR     59  42  53 N6        30.02S
$$
MNZ037-044-045-052-053-210000-
   East Central Minnesota

CITY           SKY/WX    TMP DP  RH WIND       PRES   REMARKS
PRINCETON      CLEAR     57  43  58 N6        30.03R
MORA           CLEAR     52  37  58 E6        30.05R
CAMBRIDGE      CLEAR     57  41  54 N3        30.01R
RUSH CITY      PTCLDY    51  40  65 NE6       30.04R
MOOSE LAKE     CLOUDY    50  37  62 NW7       30.04R
HINCKLEY       FAIR      50  39  66 N7        30.05R
CLOQUET        CLOUDY    48  37  66 N5        30.05R
MCGREGOR       CLEAR     46  39  76 N9        30.06R
$$
MNZ071>073-080-081-089-090-097-098-210000-
   Southwest Minnesota

CITY           SKY/WX    TMP DP  RH WIND       PRES   REMARKS
MONTEVIDEO     CLEAR     64  39  39 NE6       30.03S
GRANITE FALLS  CLEAR     64  38  39 CALM      30.04S
CANBY          CLEAR     64  40  40 N5        30.04S
MARSHALL       CLEAR     64  37  36 N8        30.02S
REDWOOD FALLS  CLEAR     65  39  38 N6        30.02R
OLIVIA         CLEAR     63  37  39 NW7       30.02R
PIPESTONE      CLEAR     68  36  30 N3        30.04S
WINDOM         CLEAR     64  37  36 NW6       30.03S
WORTHINGTON    CLEAR     64  36  34 N7        30.04S
JACKSON        CLEAR     63  36  36 N6        30.03S
TRACY          CLEAR     65  37  35 NW6       30.03S
SLAYTON        CLEAR     64  34  32 N7        30.04S
$$
MNZ065>067-074>077-082>085-091>093-210000-
   South Central Minnesota

CITY           SKY/WX    TMP DP  RH WIND       PRES   REMARKS
MANKATO        CLEAR     63  37  39 N9        30.01R
NEW ULM        CLEAR     63  41  45 NW10      30.01R
ST JAMES       CLEAR     64  37  36 NW6       30.03R
FAIRMONT       CLEAR     64  34  32 NW8       30.02S
GLENCOE        CLEAR     62  41  46 N7        30.01R
FARIBAULT      CLEAR     61  39  44 NW5       30.01R
OWATONNA       CLEAR     59  39  47 N6        30.00R
WASECA         CLEAR     61  34  36 NW8       30.01S
ALBERT LEA     CLEAR     63  39  42 NW7       30.00R
$$
MNZ078>079-086>088-094>096-210000-
   Southeast Minnesota

CITY           SKY/WX    TMP DP  RH WIND       PRES   REMARKS
ROCHESTER      CLEAR     57  41  55 NW8       30.00R
RED WING       CLEAR     61  39  44 N5        29.99R
STANTON        CLEAR     59  42  52 NW6       29.99R
DODGE CENTER   CLEAR     57  43  58 N6        30.00R
WINONA         CLEAR     57  41  54 NW5       29.99R
AUSTIN         CLEAR     61  41  48 N8        30.00R
PRESTON        CLEAR     57  41  55 N7        29.99S
$$
ABBREVIATIONS USED IN REMARKS
   TC - TEMPERATURES IN CELSIUS
  WCI - WIND CHILL INDEX
   HX - HEAT INDEX
  VSB - VISIBILITY
$$



USA.gov is the U.S. government's official web portal to all federal, state and local government web resources and services.